Regional Weather Roundup
Issued by NWS

Home | Current Version | Previous Version | Graphics & Text | Print | Product List | Glossary On
Versions: 1 2 3 4 5 6 7 8 9 10 11 12 13 14 15 16 17 18 19 20 21 22 23 24 25 26 27 28 29 30 31 32 33 34 35 36 37 38 39 40 41 42 43 44 45 46 47 48 49 50
000
ASUS43 KLOT 221706
RWRIL

ILLINOIS REGIONAL WEATHER ROUNDUP
NATIONAL WEATHER SERVICE CHICAGO/ROMEOVILLE IL
1200 PM CDT TUE JUL 22 2014

NOTE: "FAIR" INDICATES FEW OR NO CLOUDS BELOW 12,000 FEET WITH NO
SIGNIFICANT WEATHER AND/OR OBSTRUCTIONS TO VISIBILITY.

* THESE STATIONS ARE NOT UNDER NWS QUALITY CONTROL. THEY ALSO MAY NOT
  REPORT WEATHER SUCH AS PRECIPITATION OR FOG.

ILZ001-002-007-009-015-016-024-221800-
NORTHWEST ILLINOIS

CITY           SKY/WX    TMP DP  RH WIND       PRES   REMARKS
MOLINE         PTSUNNY   83  73  72 SW12      29.98S HX  89
STERLING*      MOSUNNY   88  73  62 W9        29.98F HX  96
SAVANNA*       MOSUNNY   87  73  61 SW9       29.96S HX  94
$$

ILZ003-004-008-010-011-017-018-221800-
NORTH CENTRAL ILLINOIS

CITY           SKY/WX    TMP DP  RH WIND       PRES   REMARKS
ROCKFORD       MOSUNNY   85  72  65 S15       29.98F HX  91
FREEPORT*      MOSUNNY   81  74  78 SW9       29.99F HX  86
ROCHELLE*      MOSUNNY   84  71  65 SW12      30.00S HX  89
DE KALB*       PTSUNNY   80  71  73 S15       30.01S HX  84
PERU*          PTSUNNY   83  71  65 SW12      30.02R HX  87
$$

ILZ005-006-012>014-019>023-221800-
NORTHEAST ILLINOIS

CITY           SKY/WX    TMP DP  RH WIND       PRES   REMARKS
CHICAGO-OHARE  PTSUNNY   83  66  56 SW13G22   30.00S HX  85
CHICAGO-MIDWAY MOSUNNY   87  69  54 SW20G25   30.00F HX  91
AURORA         MOSUNNY   84  70  62 SW10      30.01F HX  88
LANSING*       SUNNY     83  67  56 SW15G22   30.04S HX  86
JOLIET*        MOSUNNY   84  68  58 SW14      30.02F HX  87
WAUKEGAN       MOSUNNY   84  68  58 SW18G26   29.98S HX  87
DUPAGE AIRPORT MOSUNNY   85  69  58 SW16      30.00F HX  89
KANKAKEE*      SUNNY     84  71  65 S13       30.05F HX  89
WHEELING       MOSUNNY   84  68  58 S13       30.00F HX  87
MORRIS*        MOSUNNY   84  71  65 S9        30.00F HX  89
ROMEOVILLE*    MOSUNNY   84  69  60 SW14      30.01F HX  87
NORTHERLY ISL    N/A     84  66  54 S13         N/A  HX  86
$$

LMZ740>746-221800-
SOUTHERN LAKE MICHIGAN

STATION/POSITION SKY/WX   TEMP    WIND        PRES    VSBY  WAVE
                          AIR SEA DIR/SP/G                  HT/PER
                          (F)     (DEG/KT/KT) (MB)    (MI)  (FT/S)
SOUTHERN BUOY              70 68  180/ 16/ 17 1015.2F         2/ 4
WAUKEGAN HARBOR            82     230/ 19/ 23 1015.6F
HARRISON CRIB              80     210/ 20/ 26   N/A
BURNHAM HARBOR             84     190/ 17/ 18   N/A
CALUMET HARBOR             82     210/ 11/ 17 1015.3F
BURNS HARBOR               80     210/ 12/ 19 1017.3S
MICHIGAN CITY              79     180/ 16/ 20   N/A
$$

ILZ025>027-034>036-040-047-049-050-058-095>099-221800-
WEST-CENTRAL ILLINOIS

CITY           SKY/WX    TMP DP  RH WIND       PRES   REMARKS
QUINCY         CLOUDY    74  70  87 S12       30.01F
GALESBURG*     LGT RAIN  81  73  78 CALM      30.01R HX  85
MACOMB*        CLOUDY    75  73  92 N17       30.04R
JACKSONVILLE*  CLOUDY    81  72  75 S10       30.02F HX  85
PITTSFIELD*    CLOUDY    77  70  79 SW8       30.05F
$$

ILZ028>032-037-038-041>044-048-051>054-059>061-221800-
CENTRAL ILLINOIS

CITY           SKY/WX    TMP DP  RH WIND       PRES   REMARKS
PONTIAC        MOSUNNY   84  72  65 SW13      30.03F HX  89
BLOOMINGTON    MOSUNNY   82  70  67 S15       30.06F HX  86
DECATUR        SUNNY     81 N/A N/A S14       30.08F
PEORIA         CLOUDY    84  71  65 S10       30.00F HX  89
LACON*         PTSUNNY   83  70  65 S10G16    30.00S HX  87
LINCOLN*       PTSUNNY   85  69  58 S6        30.00F HX  89
SPRINGFIELD    PTSUNNY   85  71  63 S9        30.03F HX  90
TAYLORVILLE    MOSUNNY   81  70  69 SW8       30.07F HX  84
$$

ILZ033-039-045-046-055>057-062-063-221800-
EAST-CENTRAL ILLINOIS

CITY           SKY/WX    TMP DP  RH WIND       PRES   REMARKS
CHAMPAIGN      SUNNY     83  70  64 SW13      30.08S HX  87
RANTOUL*       SUNNY     83  69  62 SW12      30.07F HX  87
MATTOON        SUNNY     82  67  60 SW10      30.08F HX  84
PARIS*         SUNNY     82  70  66 S9        30.09F HX  86
$$

ILZ079-100>102-221800-
SOUTHWEST ILLINOIS

CITY           SKY/WX    TMP DP  RH WIND       PRES   REMARKS
ALTON          PTSUNNY   84  72  65 SW5       30.10R HX  89
CAHOKIA*       MOSUNNY   84  68  58 S6        30.08S HX  87
SPARTA*        SUNNY     81  68  65 S5        30.10F HX  83
$$

ILZ064>066-069>071-074>076-080>082-084>086-088>090-092>094-221800-
SOUTH-CENTRAL ILLINOIS

CITY           SKY/WX    TMP DP  RH WIND       PRES   REMARKS
CARBONDALE     SUNNY     85  67  54 S6        30.09F HX  87
CAIRO*         SUNNY     87  68  54 W5        30.11R HX  90
MARION         SUNNY     86  68  54 S7        30.10F HX  89
MT. VERNON     SUNNY     84  70  61 SW9       30.10F HX  88
CENTRALIA*     SUNNY     90  65  43 SW9       30.09F HX  92
SALEM*         SUNNY     86  67  53 SW9       30.09F HX  89
METROPOLIS*    SUNNY     87  63  45 NW3       30.09S HX  87
$$

ILZ067-068-072-073-078-083-087-091-221800-
SOUTHEAST ILLINOIS

CITY           SKY/WX    TMP DP  RH WIND       PRES   REMARKS
FLORA*         SUNNY     83  68  59 S9        30.10S HX  86
FAIRFIELD*     SUNNY     86  72  62 S6        30.09F HX  92
HARRISBURG*    SUNNY     85  70  60 SW6       30.12R HX  89
ROBINSON*      SUNNY     87  71  60 SW3       30.10F HX  92
CARMI*         SUNNY     88  71  58 S5        30.09S HX  93
$$

ABBREVIATIONS USED IN REMARKS
   TC - TEMPERATURE IN CELSIUS
  WCI - WIND CHILL INDEX
   HX - HEAT INDEX
  VSB - VISIBILITY
$$




USA.gov is the U.S. government's official web portal to all federal, state and local government web resources and services.